Wind_Speed
19 19 19 19 19 19 20 21 22 22 22 21 22 21 21 21 21 21 21 21 20 20 21 21 21 21 21 20 20 20 20 20 20 21 20 20 20 20 19 19 19 20 20 20
19 20 20 19 20 21 21 21 22 23 22 21 22 22 22 22 22 21 21 21 22 21 21 21 22 22 22 21 21 21 21 21 21 21 20 20 20 20 20 20 20 20 20 21
19 20 20 20 20 21 21 21 22 23 22 21 22 22 21 22 22 21 21 22 22 22 22 22 22 23 22 22 22 21 21 21 21 21 21 22 22 21 21 21 21 22 22 22
20 20 20 19 20 20 20 21 21 22 21 20 20 21 21 21 22 21 21 22 23 23 23 22 23 22 22 22 22 22 22 22 22 22 23 23 23 23 23 23 23 23 23 24
20 20 20 19 19 19 20 20 21 22 21 21 21 21 21 21 21 22 22 22 23 23 22 22 22 22 22 22 23 23 23 23 23 24 24 23 24 24 24 24 25 25 25 25
20 21 21 21 20 20 20 20 20 21 21 21 21 21 21 21 21 21 22 23 23 23 23 22 22 22 22 23 23 23 23 23 24 24 25 25 25 25 26 26 26 26 26 26
21 22 22 22 22 22 21 21 21 21 21 21 21 21 21 21 21 22 22 22 23 24 24 23 23 23 23 24 23 23 24 25 25 26 26 26 26 27 27 27 28 28 28 28
21 22 23 23 23 23 22 22 22 21 22 22 21 21 21 21 22 23 23 23 23 24 24 24 24 24 24 24 24 24 24 25 25 25 26 27 28 28 28 28 29 29 29 29
22 22 23 23 23 23 23 23 22 22 22 22 22 21 21 21 22 23 23 23 24 24 25 24 25 25 25 25 25 25 25 25 26 26 27 27 28 29 29 30 30 30 30 30
22 22 23 22 22 23 23 22 22 22 22 22 22 21 21 21 22 23 24 24 24 25 25 25 25 25 25 26 26 26 26 27 27 28 28 28 29 30 30 31 31 31 31 30
23 23 23 23 23 23 23 22 22 22 22 22 22 22 22 22 23 23 24 24 24 24 24 25 25 25 25 26 26 27 27 27 28 28 28 29 29 30 30 30 31 31 31 32
22 22 23 23 23 23 23 22 21 21 22 22 22 22 23 23 23 23 23 24 24 24 24 25 25 25 26 27 27 27 27 28 28 29 29 30 30 30 31 31 32 32 32 33
23 23 23 23 23 23 22 22 22 22 22 22 22 22 23 23 23 23 24 24 24 24 25 25 26 26 27 28 28 28 28 29 29 30 30 31 31 31 31 32 32 32 32 32
24 23 23 23 24 23 23 23 23 22 22 23 23 23 23 23 24 24 24 24 25 25 26 26 26 27 27 28 28 28 29 29 30 31 31 31 31 31 31 31 31 31 32 33
24 24 23 23 23 23 22 23 23 23 23 23 23 23 24 24 24 24 24 25 25 26 26 27 27 27 28 28 28 29 29 29 30 30 30 31 31 31 31 30 30 31 31 32
23 23 23 22 22 21 22 22 22 22 23 22 22 23 24 24 24 25 25 25 26 26 26 26 27 27 27 28 28 29 29 29 29 30 30 30 30 30 30 30 30 30 31 31
22 22 22 22 22 22 23 23 23 22 22 22 23 23 23 25 25 25 26 26 26 26 26 26 27 27 27 28 28 29 29 29 30 30 30 31 31 30 30 30 30 30 29 30
23 22 22 22 23 22 22 23 23 24 24 23 23 24 24 24 24 25 25 26 26 26 26 26 27 27 27 28 29 29 29 30 30 30 30 31 30 30 29 30 30 30 29 29
22 22 22 23 23 23 23 22 23 24 24 24 24 24 24 24 24 25 25 25 25 26 26 26 27 28 28 28 29 29 30 30 30 30 30 30 29 29 29 29 29 29 29 29
21 22 22 23 24 24 24 23 24 24 25 25 25 24 24 25 25 25 25 26 26 27 27 27 27 27 28 28 28 29 29 29 29 29 29 29 29 29 29 29 28 28 28 28
22 22 22 23 24 24 24 24 25 25 25 25 26 26 26 26 26 26 26 26 27 27 28 28 28 28 28 28 28 28 28 28 28 28 28 28 28 28 29 29 29 28 28 28
23 23 24 24 24 24 25 25 25 25 26 26 26 27 27 27 27 28 27 27 27 28 28 28 28 28 28 28 28 28 27 27 27 27 28 28 28 29 29 28 28 28 28 28
24 24 24 24 24 25 25 25 25 26 26 26 26 27 27 27 28 28 28 28 28 28 28 28 27 27 27 27 26 26 26 26 27 27 28 28 28 29 28 28 27 27 26 27
23 24 25 25 25 25 25 25 25 25 25 25 26 26 26 27 27 28 28 28 27 27 27 27 27 27 26 26 26 26 26 26 27 27 28 27 28 27 27 26 26 26 26 25
24 24 25 25 25 25 25 25 25 25 25 26 26 26 27 27 27 27 28 27 27 27 27 27 26 26 26 26 27 26 26 27 27 27 27 26 26 25 24 24 25 25 26 26
24 24 25 25 26 26 26 26 26 26 27 27 27 27 27 27 27 27 27 27 27 26 27 27 26 26 26 26 26 26 26 26 26 26 26 25 24 23 23 24 24 24 24 24
25 25 26 26 26 26 26 26 26 26 27 27 27 28 28 28 28 27 27 27 27 27 26 27 26 26 26 26 26 26 26 26 26 25 24 24 23 23 23 23 23 23 23 22
Wind_Direction
276 276 275 275 274 274 275 276 273 273 272 271 271 270 270 271 273 274 274 274 275 277 277 277 277 278 277 276 276 275 274 274 273 272 272 271 269 267 267 266 265 263 263 262
278 276 275 275 276 277 278 278 276 273 271 271 271 270 269 269 271 273 273 273 275 276 277 277 277 278 277 276 276 275 275 274 273 272 270 269 269 266 264 263 264 263 263 262
278 276 276 278 279 278 277 278 277 275 273 271 270 269 269 269 269 270 270 274 275 275 276 277 277 277 275 274 275 275 275 274 272 270 269 268 267 265 264 265 264 264 262 262
277 276 277 280 279 277 277 278 278 276 275 274 273 270 269 268 269 270 270 271 273 273 274 276 277 276 273 273 274 274 274 273 272 271 270 269 267 265 265 266 266 265 262 262
277 278 278 280 281 280 278 278 279 278 276 275 274 270 269 269 269 269 271 272 273 274 275 276 276 275 273 273 273 272 273 273 272 271 270 269 268 267 266 266 266 265 265 264
277 278 279 283 283 282 279 277 279 278 276 275 275 272 271 271 270 271 273 274 275 276 276 276 274 274 273 274 273 273 273 273 273 272 271 270 269 269 268 266 265 266 266 266
276 278 280 282 282 281 280 281 281 279 276 275 275 273 271 271 271 274 276 275 275 276 276 276 274 273 273 273 273 274 274 274 273 272 271 271 270 269 268 269 268 267 267 266
278 279 281 282 281 278 279 279 280 280 279 277 277 275 271 270 271 273 275 276 277 277 277 276 275 274 274 274 275 276 275 274 273 272 271 271 270 269 269 269 269 268 268 267
279 281 282 282 280 277 276 277 278 280 280 280 280 279 274 273 273 274 277 279 280 279 278 277 276 275 274 275 276 275 275 275 274 274 274 272 272 271 271 270 270 270 270 269
281 283 282 280 278 277 277 277 278 279 280 279 279 278 276 275 276 276 279 280 280 279 278 277 277 277 276 275 276 276 276 276 276 276 276 275 275 274 273 272 271 270 269 269
283 283 281 277 276 276 276 275 276 279 280 280 280 278 276 276 277 278 280 279 280 279 278 277 277 276 276 277 277 278 278 277 277 278 278 277 276 275 274 273 272 271 270 270
281 281 280 279 278 277 276 275 277 279 280 280 280 278 276 277 278 280 280 280 281 281 278 277 277 276 277 278 279 279 279 279 278 278 279 279 279 278 276 276 274 273 272 271
282 280 279 279 278 277 276 276 278 278 279 280 279 278 278 279 280 280 280 281 281 281 279 278 277 277 278 279 280 281 280 280 279 279 279 279 279 279 278 277 276 274 273 272
281 279 278 276 275 276 275 275 276 277 278 279 279 279 280 281 281 281 281 282 281 281 282 282 281 280 279 280 280 280 281 282 281 281 281 281 280 280 279 278 277 275 274 273
279 278 277 276 275 274 274 275 276 277 277 277 279 279 281 281 282 282 283 282 282 282 283 284 283 283 282 282 282 281 282 283 284 283 283 283 282 280 279 278 278 277 275 274
278 276 275 274 276 275 275 277 278 278 278 278 280 281 282 283 283 284 285 284 284 284 285 285 285 285 284 284 284 284 284 285 286 285 284 283 284 282 280 279 278 278 277 275
277 275 275 275 277 277 277 278 279 280 281 281 282 284 285 285 284 285 285 284 284 286 286 286 285 284 285 286 286 286 287 287 288 287 286 285 284 283 281 279 278 278 277 277
279 277 276 276 278 277 276 278 279 280 282 283 284 285 287 288 287 287 286 285 286 287 287 287 286 286 286 287 288 288 289 290 289 288 288 287 285 283 282 281 280 278 277 277
278 277 276 277 278 280 279 278 279 280 282 284 286 286 287 288 287 287 288 288 288 289 288 288 288 287 287 288 289 289 290 290 289 289 288 287 285 284 283 283 281 280 278 277
279 279 279 279 279 280 280 279 280 282 283 284 285 285 285 286 287 288 288 289 289 290 291 290 289 289 289 289 289 290 290 290 289 289 288 287 286 284 284 284 283 281 280 278
279 281 282 281 281 280 280 279 279 281 283 284 284 284 284 285 286 288 288 289 290 290 290 290 290 289 289 289 289 289 290 291 290 289 288 287 286 286 285 283 282 281 279 277
280 281 283 283 284 284 284 282 282 283 284 284 284 283 283 285 286 288 289 290 290 290 290 290 290 290 290 290 290 291 292 291 292 291 289 287 287 286 285 284 282 280 278 277
281 281 282 282 284 285 286 284 283 283 284 285 285 283 283 285 286 288 290 290 290 290 289 290 290 290 291 292 293 293 293 293 295 294 292 289 288 287 286 283 281 279 277 277
282 281 282 283 283 285 286 285 284 284 284 284 285 285 284 285 287 289 290 290 290 290 290 291 291 291 290 291 292 293 294 294 295 295 294 293 291 290 287 283 281 279 278 276
281 281 282 283 284 286 287 285 285 284 284 285 286 286 286 287 288 290 290 290 290 290 291 291 292 292 292 292 292 293 294 294 294 294 293 293 293 290 287 284 281 280 279 278
281 281 283 284 284 286 287 286 286 285 286 286 286 288 289 289 289 290 291 291 291 290 290 291 291 291 292 292 293 293 294 294 294 293 292 294 293 290 287 285 282 281 280 280
282 281 283 284 285 285 287 287 287 287 286 286 287 288 290 290 289 290 290 290 290 291 290 290 291 291 291 292 292 293 295 295 296 294 292 292 291 290 287 286 284 283 280 278
Height
5808 5807 5807 5807 5807 5806 5806 5806 5806 5806 5806 5806 5805 5805 5805 5805 5805 5804 5804 5804 5803 5802 5802 5801 5800 5799 5798 5797 5797 5796 5796 5795 5795 5794 5793 5793 5793 5793 5793 5793 5793 5794 5794 5794
5802 5801 5801 5801 5801 5800 5800 5799 5799 5798 5799 5799 5798 5798 5798 5798 5798 5798 5797 5797 5797 5796 5795 5794 5794 5793 5792 5791 5791 5790 5789 5789 5788 5788 5787 5787 5787 5787 5787 5787 5788 5788 5788 5788
5797 5796 5795 5795 5795 5794 5793 5792 5792 5791 5792 5791 5791 5791 5791 5791 5791 5791 5791 5790 5790 5789 5788 5788 5787 5786 5785 5785 5784 5783 5783 5782 5781 5781 5781 5781 5781 5781 5781 5781 5781 5781 5782 5782
5790 5790 5789 5791 5788 5787 5786 5786 5785 5784 5784 5784 5784 5784 5784 5784 5784 5784 5784 5783 5783 5782 5781 5781 5780 5779 5778 5778 5777 5777 5776 5775 5775 5774 5774 5774 5774 5774 5774 5774 5774 5774 5774 5775
5784 5783 5783 5784 5782 5781 5780 5780 5778 5777 5777 5777 5776 5776 5777 5777 5776 5776 5776 5776 5775 5775 5774 5773 5773 5772 5771 5770 5770 5769 5769 5768 5768 5767 5767 5766 5766 5766 5766 5767 5767 5767 5767 5767
5777 5776 5777 5778 5776 5774 5774 5773 5772 5771 5770 5770 5770 5770 5771 5769 5769 5769 5768 5768 5768 5767 5766 5766 5765 5764 5764 5763 5762 5762 5761 5761 5760 5759 5759 5759 5758 5758 5758 5758 5758 5758 5758 5758
5771 5769 5770 5770 5769 5768 5768 5768 5765 5764 5763 5763 5763 5763 5763 5762 5762 5762 5761 5761 5760 5759 5759 5758 5757 5757 5756 5756 5755 5754 5754 5753 5752 5752 5751 5750 5750 5749 5749 5749 5749 5749 5749 5749
5764 5763 5765 5763 5761 5761 5760 5759 5758 5757 5756 5756 5755 5755 5755 5755 5755 5755 5754 5753 5753 5752 5751 5750 5750 5749 5748 5748 5747 5747 5746 5745 5744 5743 5742 5742 5741 5740 5740 5739 5739 5739 5739 5739
5758 5758 5756 5754 5753 5752 5752 5751 5750 5750 5749 5749 5748 5748 5748 5748 5748 5747 5747 5746 5745 5744 5743 5742 5741 5741 5740 5740 5739 5738 5737 5736 5735 5734 5733 5732 5731 5731 5730 5729 5729 5729 5729 5729
5749 5749 5748 5746 5745 5744 5744 5743 5742 5742 5741 5741 5741 5740 5740 5740 5740 5739 5739 5738 5737 5736 5735 5734 5733 5732 5732 5731 5730 5729 5728 5727 5726 5725 5724 5723 5721 5720 5719 5719 5718 5718 5718 5718
5741 5741 5739 5738 5737 5736 5736 5735 5735 5735 5734 5733 5733 5733 5733 5733 5732 5732 5731 5730 5729 5728 5727 5726 5725 5724 5723 5722 5721 5720 5719 5718 5716 5715 5714 5712 5711 5710 5709 5708 5707 5707 5707 5707
5734 5733 5731 5731 5730 5729 5728 5728 5727 5727 5727 5726 5725 5725 5725 5725 5724 5724 5723 5722 5721 5720 5719 5718 5716 5715 5714 5713 5712 5711 5710 5708 5707 5706 5704 5703 5701 5700 5698 5697 5696 5695 5695 5694
5727 5725 5724 5723 5722 5722 5721 5720 5720 5720 5719 5719 5718 5718 5717 5717 5717 5716 5715 5714 5713 5712 5711 5709 5708 5706 5705 5704 5703 5701 5700 5699 5697 5696 5694 5693 5691 5689 5688 5686 5685 5684 5683 5682
5719 5718 5716 5716 5715 5714 5713 5713 5713 5712 5712 5712 5711 5711 5710 5709 5709 5708 5707 5706 5704 5703 5702 5700 5699 5698 5696 5695 5693 5692 5690 5689 5687 5686 5684 5682 5680 5678 5677 5675 5674 5673 5672 5671
5712 5710 5709 5708 5707 5706 5706 5706 5706 5705 5705 5704 5704 5703 5702 5701 5701 5699 5698 5697 5696 5694 5693 5691 5690 5689 5687 5685 5683 5682 5680 5679 5677 5675 5673 5671 5669 5667 5666 5664 5663 5662 5661 5660
5705 5703 5702 5701 5700 5700 5699 5699 5699 5698 5698 5697 5696 5695 5694 5693 5692 5691 5690 5688 5687 5685 5684 5682 5681 5679 5677 5675 5673 5672 5670 5669 5666 5664 5662 5661 5659 5657 5655 5654 5652 5651 5650 5649
5698 5697 5696 5695 5695 5694 5693 5692 5692 5691 5690 5689 5688 5687 5686 5685 5683 5682 5681 5679 5678 5676 5675 5673 5671 5669 5667 5666 5664 5662 5660 5658 5656 5654 5652 5650 5648 5646 5644 5643 5642 5641 5640 5639
5691 5690 5689 5689 5688 5687 5687 5685 5685 5684 5683 5682 5681 5679 5678 5676 5675 5674 5672 5670 5669 5667 5666 5664 5662 5660 5658 5656 5654 5652 5650 5648 5646 5644 5642 5639 5637 5636 5634 5633 5631 5630 5629 5628
5684 5683 5682 5681 5681 5680 5679 5678 5677 5676 5675 5674 5673 5671 5670 5668 5667 5665 5664 5662 5660 5658 5657 5654 5652 5650 5649 5647 5644 5642 5640 5638 5636 5634 5631 5629 5627 5626 5624 5622 5621 5619 5618 5617
5677 5676 5675 5674 5674 5673 5672 5671 5669 5668 5667 5666 5664 5663 5662 5660 5659 5657 5655 5653 5651 5649 5647 5645 5643 5641 5639 5637 5635 5632 5630 5628 5625 5623 5622 5620 5618 5616 5614 5612 5610 5609 5608 5607
5670 5669 5668 5667 5666 5665 5664 5662 5661 5660 5659 5657 5656 5654 5653 5651 5650 5648 5646 5644 5643 5640 5638 5636 5634 5632 5629 5627 5625 5622 5620 5618 5616 5613 5612 5610 5608 5606 5604 5602 5600 5599 5598 5597
5663 5662 5661 5660 5658 5657 5655 5654 5653 5652 5650 5648 5647 5645 5644 5642 5641 5639 5637 5635 5633 5631 5629 5627 5624 5622 5620 5617 5615 5613 5610 5608 5606 5604 5602 5600 5598 5596 5594 5592 5590 5589 5588 5587
5655 5654 5653 5652 5650 5649 5647 5645 5644 5643 5641 5640 5638 5636 5635 5633 5631 5630 5628 5626 5624 5622 5619 5617 5615 5613 5610 5608 5606 5604 5602 5599 5597 5594 5592 5590 5588 5585 5583 5582 5580 5579 5578 5577
5647 5646 5644 5643 5642 5641 5639 5637 5635 5634 5632 5631 5629 5627 5626 5624 5622 5620 5618 5616 5614 5612 5610 5608 5606 5604 5602 5600 5597 5595 5593 5591 5588 5586 5583 5581 5578 5576 5573 5572 5570 5569 5568 5567
5638 5637 5636 5635 5633 5632 5630 5629 5627 5625 5624 5622 5621 5619 5617 5615 5613 5611 5609 5607 5605 5604 5602 5600 5598 5595 5593 5591 5589 5587 5585 5582 5579 5577 5574 5572 5569 5567 5565 5563 5561 5560 5559 5558
5630 5629 5628 5626 5625 5624 5622 5621 5619 5617 5616 5614 5612 5611 5609 5607 5605 5603 5601 5599 5597 5595 5593 5591 5589 5587 5585 5583 5581 5578 5576 5574 5571 5568 5566 5564 5561 5559 5557 5555 5553 5552 5550 5549
5621 5620 5619 5618 5616 5615 5614 5612 5611 5609 5607 5606 5604 5602 5600 5598 5596 5594 5592 5590 5589 5587 5585 5583 5581 5579 5577 5575 5572 5570 5567 5565 5562 5560 5558 5556 5553 5551 5549 5547 5546 5544 5543 5541